ARE4183 SKBG-SKBO

Flight info

Callsign ARE4183
Flight time 0h 33m
Altitude 22000
Route EJA1G EJA G431 GEPSO A567 VULAM VULAM7D
Aircraft A320/M-SDE3FGHIRWY/LB1

Departure

Time 2026-04-25 13:46
Airport Palonegro Airport (SKBG)

Arrival

Time 2026-04-25 14:20
Airport El Dorado International Airport (SKBO)
Time Latitude Longitude Altitude Speed Heading
2026-04-25 13:03 7.12734 -73.18159 3903 ft 0 kts 10°
2026-04-25 13:33 7.12733 -73.18159 3902 ft 1 kts 10°
2026-04-25 13:33 7.12724 -73.18161 3900 ft 3 kts
2026-04-25 13:34 7.12698 -73.18161 3901 ft 3 kts 341°
2026-04-25 13:34 7.12683 -73.18153 3900 ft 3 kts 297°
2026-04-25 13:34 7.12680 -73.18145 3904 ft 0 kts 281°
2026-04-25 13:40 7.12682 -73.18157 3905 ft 6 kts 281°
2026-04-25 13:41 7.12691 -73.18208 3903 ft 7 kts 280°
2026-04-25 13:41 7.12699 -73.18250 3905 ft 5 kts 280°
2026-04-25 13:41 7.12730 -73.18313 3905 ft 15 kts 291°
2026-04-25 13:41 7.12761 -73.18406 3904 ft 13 kts 312°
2026-04-25 13:42 7.12828 -73.18439 3905 ft 9 kts 338°
2026-04-25 13:42 7.12903 -73.18468 3907 ft 15 kts 340°
2026-04-25 13:42 7.12993 -73.18502 3908 ft 12 kts 340°
2026-04-25 13:42 7.13071 -73.18532 3906 ft 15 kts 338°
2026-04-25 13:43 7.13166 -73.18577 3911 ft 13 kts 314°
2026-04-25 13:43 7.13206 -73.18651 3911 ft 14 kts 293°
2026-04-25 13:43 7.13312 -73.18726 3911 ft 23 kts 339°
2026-04-25 13:43 7.13467 -73.18786 3911 ft 24 kts 340°
2026-04-25 13:44 7.13603 -73.18865 3911 ft 15 kts 348°
2026-04-25 13:44 7.13615 -73.18846 3911 ft 2 kts 119°
2026-04-25 13:44 7.13609 -73.18843 3911 ft 0 kts 149°
2026-04-25 13:45 7.13599 -73.18837 3911 ft 9 kts 151°
2026-04-25 13:45 7.13297 -73.18720 3911 ft 84 kts 160°
2026-04-25 13:46 7.12549 -73.18440 3900 ft 143 kts 159°
2026-04-25 13:46 7.11486 -73.18042 4133 ft 175 kts 160°
2026-04-25 13:46 7.10294 -73.17594 4802 ft 185 kts 160°
2026-04-25 13:46 7.09103 -73.17134 5553 ft 184 kts 159°
2026-04-25 13:47 7.07849 -73.16650 5873 ft 200 kts 159°
2026-04-25 13:47 7.06531 -73.16140 6314 ft 205 kts 158°
2026-04-25 13:47 7.05180 -73.15621 6800 ft 209 kts 159°
2026-04-25 13:47 7.03828 -73.15134 7250 ft 212 kts 167°
2026-04-25 13:48 7.02384 -73.15318 7713 ft 216 kts 210°
2026-04-25 13:48 7.01360 -73.16414 8182 ft 217 kts 237°
2026-04-25 13:48 7.00599 -73.17728 8668 ft 218 kts 242°
2026-04-25 13:48 6.99882 -73.19086 9064 ft 222 kts 242°
2026-04-25 13:49 6.99164 -73.20461 9084 ft 221 kts 242°
2026-04-25 13:49 6.98631 -73.21896 9086 ft 220 kts 264°
2026-04-25 13:49 6.98817 -73.23448 9097 ft 234 kts 287°
2026-04-25 13:49 6.99306 -73.25091 9084 ft 252 kts 287°
2026-04-25 13:50 6.99828 -73.26853 9077 ft 268 kts 287°
2026-04-25 13:50 7.00374 -73.28700 9084 ft 288 kts 287°
2026-04-25 13:50 7.00945 -73.30655 9082 ft 293 kts 286°
2026-04-25 13:50 7.01457 -73.32650 9090 ft 295 kts 277°
2026-04-25 13:51 7.01528 -73.34741 9668 ft 299 kts 271°
2026-04-25 13:51 7.01575 -73.36845 10402 ft 305 kts 272°
2026-04-25 13:51 7.01643 -73.39064 10619 ft 328 kts 272°
2026-04-25 13:51 7.01724 -73.41442 10879 ft 347 kts 272°
2026-04-25 13:52 7.01807 -73.43896 11460 ft 354 kts 272°
2026-04-25 13:52 7.01739 -73.46387 12125 ft 358 kts 260°
2026-04-25 13:52 7.00936 -73.48763 12783 ft 362 kts 241°
2026-04-25 13:52 6.99977 -73.50138 13218 ft 364 kts 227°
2026-04-25 13:53 6.97250 -73.52101 14036 ft 369 kts 206°
2026-04-25 13:53 6.94940 -73.53247 14668 ft 372 kts 206°
2026-04-25 13:53 6.92600 -73.54399 15285 ft 375 kts 206°
2026-04-25 13:53 6.91041 -73.55167 15680 ft 377 kts 206°
2026-04-25 13:54 6.88674 -73.56335 16258 ft 381 kts 206°
2026-04-25 13:54 6.86283 -73.57517 16819 ft 384 kts 207°
2026-04-25 13:54 6.83877 -73.58710 17359 ft 387 kts 207°
2026-04-25 13:54 6.81452 -73.59913 17887 ft 390 kts 207°
2026-04-25 13:55 6.79008 -73.61125 18409 ft 393 kts 207°
2026-04-25 13:55 6.76538 -73.62350 18913 ft 396 kts 207°
2026-04-25 13:55 6.74056 -73.63579 19384 ft 400 kts 207°
2026-04-25 13:55 6.71550 -73.64821 19848 ft 403 kts 207°
2026-04-25 13:56 6.69021 -73.66074 20304 ft 406 kts 207°
2026-04-25 13:56 6.66512 -73.67318 20732 ft 409 kts 207°
2026-04-25 13:56 6.63945 -73.68591 21158 ft 412 kts 207°
2026-04-25 13:56 6.61368 -73.69874 21576 ft 415 kts 207°
2026-04-25 13:57 6.58770 -73.71169 21940 ft 418 kts 207°
2026-04-25 13:57 6.57038 -73.72031 22024 ft 419 kts 207°
2026-04-25 13:57 6.53540 -73.73765 22064 ft 419 kts 206°
2026-04-25 13:57 6.50925 -73.75058 22063 ft 419 kts 206°
2026-04-25 13:58 6.48345 -73.76333 22070 ft 418 kts 206°
2026-04-25 13:58 6.45727 -73.77626 22053 ft 418 kts 206°
2026-04-25 13:58 6.43116 -73.78920 22055 ft 418 kts 207°
2026-04-25 13:58 6.40508 -73.80216 22020 ft 418 kts 207°
2026-04-25 13:59 6.37889 -73.81517 22003 ft 418 kts 207°
2026-04-25 13:59 6.35277 -73.82814 22011 ft 423 kts 207°
2026-04-25 13:59 6.32584 -73.84147 22009 ft 437 kts 206°
2026-04-25 13:59 6.29820 -73.85514 22010 ft 447 kts 207°
2026-04-25 14:00 6.27043 -73.86888 22017 ft 451 kts 206°
2026-04-25 14:00 6.24189 -73.88301 22017 ft 452 kts 206°
2026-04-25 14:00 6.21405 -73.89678 22016 ft 452 kts 206°
2026-04-25 14:00 6.18579 -73.91075 22023 ft 452 kts 206°
2026-04-25 14:01 6.15759 -73.92470 22055 ft 452 kts 206°
2026-04-25 14:01 6.12940 -73.93867 22071 ft 452 kts 207°
2026-04-25 14:01 6.10121 -73.95266 22083 ft 452 kts 207°
2026-04-25 14:01 6.07299 -73.96664 22091 ft 452 kts 206°
2026-04-25 14:02 6.04478 -73.98061 22090 ft 452 kts 206°
2026-04-25 14:02 6.01596 -73.99327 22092 ft 452 kts 199°
2026-04-25 14:02 5.98542 -74.00087 22102 ft 453 kts 191°
2026-04-25 14:02 5.96491 -74.00474 22099 ft 453 kts 191°
2026-04-25 14:03 5.92351 -74.01251 22099 ft 453 kts 191°
2026-04-25 14:03 5.89291 -74.01827 22099 ft 453 kts 191°
2026-04-25 14:03 5.86184 -74.02417 22130 ft 452 kts 191°
2026-04-25 14:03 5.83087 -74.03010 22198 ft 453 kts 191°
2026-04-25 14:04 5.79988 -74.03599 22256 ft 453 kts 191°
2026-04-25 14:04 5.76901 -74.04181 22264 ft 448 kts 191°
2026-04-25 14:04 5.73897 -74.04745 22268 ft 429 kts 191°
2026-04-25 14:04 5.71035 -74.05283 22275 ft 421 kts 191°
2026-04-25 14:05 5.68160 -74.05828 22289 ft 419 kts 191°
2026-04-25 14:05 5.65291 -74.06375 22291 ft 419 kts 191°
2026-04-25 14:05 5.62425 -74.06923 22291 ft 419 kts 191°
2026-04-25 14:05 5.59556 -74.07470 22254 ft 419 kts 191°
2026-04-25 14:06 5.56686 -74.08016 22246 ft 418 kts 191°
2026-04-25 14:06 5.53827 -74.08556 22256 ft 418 kts 191°
2026-04-25 14:06 5.51020 -74.09087 22282 ft 410 kts 191°
2026-04-25 14:06 5.48283 -74.09605 22348 ft 393 kts 191°
2026-04-25 14:07 5.45616 -74.10125 22397 ft 388 kts 194°
2026-04-25 14:07 5.43076 -74.11014 22389 ft 386 kts 207°
2026-04-25 14:07 5.40748 -74.12358 22307 ft 387 kts 211°
2026-04-25 14:07 5.38432 -74.13726 21769 ft 387 kts 211°
2026-04-25 14:08 5.36097 -74.15095 21118 ft 389 kts 211°
2026-04-25 14:08 5.33789 -74.16449 20897 ft 380 kts 211°
2026-04-25 14:08 5.31526 -74.17779 20537 ft 374 kts 211°
2026-04-25 14:08 5.29293 -74.19093 20118 ft 371 kts 211°
2026-04-25 14:09 5.27074 -74.20400 19699 ft 368 kts 211°
2026-04-25 14:09 5.24882 -74.21696 19285 ft 365 kts 211°
2026-04-25 14:09 5.22697 -74.22989 18870 ft 362 kts 211°
2026-04-25 14:09 5.21257 -74.23841 18596 ft 361 kts 211°
2026-04-25 14:10 5.18413 -74.25525 18042 ft 357 kts 211°
2026-04-25 14:10 5.16277 -74.26790 17627 ft 355 kts 211°
2026-04-25 14:10 5.14164 -74.28044 17201 ft 352 kts 211°
2026-04-25 14:10 5.12041 -74.29301 16416 ft 360 kts 211°
2026-04-25 14:11 5.09839 -74.30603 15332 ft 370 kts 211°
2026-04-25 14:11 5.07580 -74.31935 14441 ft 377 kts 211°
2026-04-25 14:11 5.05367 -74.33235 14018 ft 359 kts 211°
2026-04-25 14:11 5.03264 -74.34476 13638 ft 341 kts 211°
2026-04-25 14:12 5.01316 -74.35625 13554 ft 318 kts 211°
2026-04-25 14:12 4.99463 -74.36718 13439 ft 301 kts 211°
2026-04-25 14:12 4.97678 -74.37771 13305 ft 294 kts 211°
2026-04-25 14:12 4.95905 -74.38740 13174 ft 286 kts 202°
2026-04-25 14:13 4.94010 -74.39246 13049 ft 279 kts 187°
2026-04-25 14:13 4.92093 -74.39226 12923 ft 272 kts 171°
2026-04-25 14:13 4.90327 -74.38729 12866 ft 263 kts 156°
2026-04-25 14:13 4.88784 -74.37830 12882 ft 252 kts 142°
2026-04-25 14:14 4.87551 -74.36635 12911 ft 238 kts 128°
2026-04-25 14:14 4.86588 -74.35368 12894 ft 219 kts 127°
2026-04-25 14:14 4.85698 -74.34192 12858 ft 204 kts 127°
2026-04-25 14:14 4.84852 -74.33074 12658 ft 199 kts 127°
2026-04-25 14:15 4.84032 -74.31990 12274 ft 198 kts 127°
2026-04-25 14:15 4.83764 -74.31634 12336 ft 198 kts 126°
2026-04-25 14:15 4.82387 -74.29813 11909 ft 196 kts 127°
2026-04-25 14:15 4.81563 -74.28723 11651 ft 196 kts 127°
2026-04-25 14:16 4.80744 -74.27640 11392 ft 194 kts 127°
2026-04-25 14:16 4.79928 -74.26562 11135 ft 194 kts 128°
2026-04-25 14:16 4.79117 -74.25489 10878 ft 192 kts 128°
2026-04-25 14:16 4.78312 -74.24424 10623 ft 191 kts 128°
2026-04-25 14:17 4.77509 -74.23365 10374 ft 190 kts 128°
2026-04-25 14:17 4.76726 -74.22329 10113 ft 182 kts 126°
2026-04-25 14:17 4.75984 -74.21346 9876 ft 177 kts 126°
2026-04-25 14:17 4.75246 -74.20374 9653 ft 174 kts 125°
2026-04-25 14:18 4.74527 -74.19423 9439 ft 168 kts 125°
2026-04-25 14:18 4.73828 -74.18499 9208 ft 165 kts 125°
2026-04-25 14:18 4.73137 -74.17586 8987 ft 163 kts 125°
2026-04-25 14:18 4.72452 -74.16679 8770 ft 162 kts 126°
2026-04-25 14:19 4.71770 -74.15779 8551 ft 162 kts 126°
2026-04-25 14:19 4.71092 -74.14884 8382 ft 159 kts 127°
2026-04-25 14:19 4.70492 -74.14088 8370 ft 121 kts 127°
2026-04-25 14:19 4.70097 -74.13560 8370 ft 68 kts 128°
2026-04-25 14:20 4.69891 -74.13351 8372 ft 28 kts 169°
2026-04-25 14:20 4.69842 -74.13331 8371 ft 0 kts 159°
2026-04-25 14:22 4.69819 -74.13322 8372 ft 9 kts 162°
2026-04-25 14:22 4.69764 -74.13311 8372 ft 7 kts 171°
2026-04-25 14:23 4.69715 -74.13304 8372 ft 6 kts 172°
2026-04-25 14:23 4.69668 -74.13298 8372 ft 7 kts 173°
2026-04-25 14:23 4.69618 -74.13292 8373 ft 7 kts 173°
2026-04-25 14:23 4.69589 -74.13308 8373 ft 4 kts 237°
2026-04-25 14:24 4.69588 -74.13330 8373 ft 5 kts 279°
2026-04-25 14:24 4.69617 -74.13376 8373 ft 9 kts 306°
2026-04-25 14:24 4.69656 -74.13429 8373 ft 9 kts 309°
2026-04-25 14:24 4.69697 -74.13481 8373 ft 9 kts 307°
2026-04-25 14:25 4.69736 -74.13534 8373 ft 9 kts 307°
2026-04-25 14:25 4.69775 -74.13585 8373 ft 9 kts 307°
2026-04-25 14:25 4.69775 -74.13639 8373 ft 7 kts 224°
2026-04-25 14:25 4.69761 -74.13644 8373 ft 7 kts 194°
2026-04-25 14:26 4.69672 -74.13569 8373 ft 12 kts 126°
2026-04-25 14:26 4.69618 -74.13502 8373 ft 13 kts 130°
2026-04-25 14:26 4.69560 -74.13469 8373 ft 4 kts 201°
2026-04-25 14:26 4.69539 -74.13471 8373 ft 4 kts 172°
2026-04-25 14:27 4.69518 -74.13452 8373 ft 3 kts 132°
2026-04-25 14:27 4.69509 -74.13441 8373 ft 1 kts 128°